CW5554 Weather Reports


time (UTC)temp
C
wind
direction
speed
KPH
gust
KPH
rain 1hr
cm
rain 24hr
cm
rain mn
cm
humidity
%
barometer
mb
20260507135516 16 178 3.2 8.0 0.00 0.00 0.00 46 1014.1
20260507134946 16 148 1.6 4.8 0.00 0.00 0.00 46 1014.1
20260507134516 16 306 1.6 4.8 0.00 0.00 0.00 51 1014.1
20260507134016 15 302 1.6 11.3 0.00 0.00 0.00 50 1014.1
20260507133446 15 336 3.2 11.3 0.00 0.00 0.00 48 1014.2
20260507132946 15 302 1.6 9.7 0.00 0.00 0.00 49 1014.2
20260507132516 15 235 0.0 9.7 0.00 0.00 0.00 48 1014.3
20260507132016 15 222 6.4 9.7 0.00 0.00 0.00 50 1014.3
20260507131016 15 208 4.8 8.0 0.00 0.00 0.00 48 1014.4
20260507130446 15 184 3.2 9.7 0.00 0.00 0.00 47 1014.4
20260507125946 15 252 0.0 9.7 0.00 0.00 0.00 48 1014.4
20260507125516 15 9 0.0 4.8 0.00 0.00 0.00 47 1014.4
20260507124446 15 313 3.2 8.0 0.00 0.00 0.00 49 1014.5
20260507124016 15 339 4.8 9.7 0.00 0.00 0.00 50 1014.6
20260507123446 15 178 1.6 9.7 0.00 0.00 0.00 49 1014.6
20260507122946 14 149 6.4 6.4 0.00 0.00 0.00 49 1014.6
20260507122516 14 127 4.8 4.8 0.00 0.00 0.00 52 1014.6
20260507121946 14 78 1.6 4.8 0.00 0.00 0.00 50 1014.6
20260507121516 14 78 0.0 4.8 0.00 0.00 0.00 49 1014.6
20260507121016 14 78 1.6 4.8 0.00 0.00 0.00 50 1014.6
20260507120516 14 69 1.6 4.8 0.00 0.00 0.00 51 1014.6
20260507115446 14 23 1.6 8.0 0.00 0.00 0.00 50 1014.7
20260507114946 14 5 3.2 4.8 0.00 0.00 0.00 51 1014.6
20260507114516 14 5 3.2 8.0 0.00 0.00 0.00 57 1014.6
20260507113516 14 292 4.8 8.0 0.00 0.00 0.00 50 1014.7
20260507113016 14 229 1.6 9.7 0.00 0.00 0.00 47 1014.6
20260507112445 15 228 3.2 9.7 0.00 0.00 0.00 50 1014.6
20260507111517 15 346 3.2 6.4 0.00 0.00 0.00 49 1014.6
20260507111016 16 296 3.2 6.4 0.00 0.00 0.00 46 1014.7
20260507110516 16 257 1.6 9.7 0.00 0.00 0.00 49 1014.7
20260507105446 15 190 6.4 9.7 0.00 0.00 0.00 51 1014.7
20260507104946 14 92 0.0 9.7 0.00 0.00 0.00 54 1014.7
20260507104516 14 108 4.8 9.7 0.00 0.00 0.00 54 1014.8
20260507104016 14 99 3.2 11.3 0.00 0.00 0.00 55 1014.8
20260507103446 14 81 0.0 11.3 0.00 0.00 0.00 61 1014.9
20260507102946 13 90 3.2 6.4 0.00 0.00 0.00 64 1015.0
20260507102516 13 111 3.2 6.4 0.00 0.00 0.00 64 1015.0
20260507102016 13 132 0.0 8.0 0.00 0.00 0.00 66 1015.0
20260507100946 13 109 6.4 6.4 0.00 0.00 0.00 68 1015.1
20260507100516 13 110 0.0 6.4 0.00 0.00 0.00 67 1015.1
20260507095946 12 98 3.2 8.0 0.00 0.00 0.00 70 1015.2
20260507095447 12 62 0.0 8.0 0.00 0.00 0.00 71 1015.2
20260507094946 12 69 3.2 8.0 0.00 0.00 0.00 68 1015.2
20260507094515 12 102 3.2 8.0 0.00 0.00 0.00 71 1015.1
20260507093446 11 221 3.2 8.0 0.00 0.00 0.00 77 1015.2
20260507093015 11 86 0.0 9.7 0.00 0.00 0.00 76 1015.2
20260507092445 11 147 0.0 9.7 0.00 0.00 0.00 77 1015.2
20260507091945 11 219 3.2 9.7 0.00 0.00 0.00 78 1015.2
20260507091515 11 137 1.6 9.7 0.00 0.00 0.00 80 1015.3
20260507091015 11 103 3.2 9.7 0.00 0.00 0.00 81 1015.2
20260507090445 11 105 9.7 9.7 0.00 0.00 0.00 81 1015.2
20260507085015 10 98 1.6 8.0 0.00 0.00 0.00 85 1015.2
20260507084445 10 55 1.6 8.0 0.00 0.00 0.00 86 1015.2
20260507084017 10 84 4.8 6.4 0.00 0.00 0.00 87 1015.2
20260507083516 10 243 1.6 6.4 0.00 0.00 0.00 89 1015.3
20260507082946 9 119 1.6 6.4 0.00 0.00 0.00 90 1015.2
20260507082517 9 150 6.4 6.4 0.00 0.00 0.00 91 1015.3
20260507082015 9 100 3.2 8.0 0.00 0.00 0.00 91 1015.3
20260507081516 8 131 3.2 8.0 0.00 0.00 0.00 92 1015.3
20260507080945 8 129 4.8 6.4 0.00 0.00 0.00 93 1015.4
20260507080016 8 113 0.0 4.8 0.00 0.00 0.00 93 1015.3
20260507074946 7 180 3.2 4.8 0.00 0.00 0.00 93 1015.3
20260507074516 7 182 3.2 3.2 0.00 0.00 0.00 93 1015.3
20260507074016 7 184 0.0 3.2 0.00 0.00 0.00 93 1015.2
20260507073446 7 302 0.0 1.6 0.00 0.00 0.00 93 1015.3
20260507072945 6 132 0.0 0.0 0.00 0.00 0.00 93 1015.3
20260507072516 6 155 0.0 3.2 0.00 0.00 0.00 92 1015.2
20260507071516 6 61 0.0 0.0 0.00 0.00 0.00 92 1015.1
20260507071016 5 61 0.0 3.2 0.00 0.00 0.00 92 1015.1
20260507070515 5 67 0.0 3.2 0.00 0.00 0.00 91 1015.1
20260507070015 5 68 0.0 3.2 0.00 0.00 0.00 91 1015.1
20260507065516 5 241 1.6 1.6 0.00 0.00 0.00 91 1015.1
20260507064945 5 241 0.0 1.6 0.00 0.00 0.00 91 1015.2
20260507064015 4 241 0.0 3.2 0.00 0.00 0.00 90 1015.2
20260507062946 4 22 0.0 3.2 0.00 0.00 0.00 90 1015.2
20260507062515 4 355 0.0 3.2 0.00 0.00 0.00 90 1015.2
20260507061946 4 355 0.0 3.2 0.00 0.00 0.00 90 1015.1
20260507061445 4 355 1.6 1.6 0.00 0.00 0.00 90 1015.1
20260507061015 4 355 0.0 0.0 0.00 0.00 0.00 90 1015.1
20260507060445 3 355 0.0 0.0 0.00 0.00 0.00 89 1015.1
20260507060015 3 355 0.0 0.0 0.00 0.00 0.00 89 1015.0
20260507055515 3 355 0.0 0.0 0.00 0.00 0.00 89 1015.0
20260507054945 3 355 0.0 3.2 0.00 0.00 0.00 89 1015.0
20260507054515 3 355 0.0 3.2 0.00 0.00 0.00 89 1014.9
20260507053946 3 355 0.0 3.2 0.00 0.00 0.00 89 1014.9
20260507053015 3 355 0.0 0.0 0.00 0.00 0.00 88 1014.8
20260507052445 3 355 0.0 3.2 0.00 0.00 0.00 88 1014.7
20260507052016 3 355 0.0 3.2 0.00 0.00 0.00 88 1014.7
20260507051445 3 36 1.6 1.6 0.00 0.00 0.00 88 1014.8
20260507051015 3 238 0.0 0.0 0.00 0.00 0.00 88 1014.7
20260507050445 3 201 0.0 0.0 0.00 0.00 0.00 88 1014.7
20260507050016 3 44 0.0 0.0 0.00 0.00 0.00 88 1014.7
20260507044447 3 49 0.0 0.0 0.00 0.00 0.00 87 1014.6
20260507044015 3 59 0.0 0.0 0.00 0.00 0.00 87 1014.6
20260507043015 3 57 0.0 3.2 0.00 0.00 0.00 87 1014.6
20260507042445 3 30 0.0 3.2 0.00 0.00 0.00 87 1014.5
20260507042017 3 30 1.6 4.8 0.00 0.00 0.00 87 1014.5
20260507035946 3 30 0.0 6.4 0.00 0.00 0.00 86 1014.6
20260507035445 3 30 3.2 6.4 0.00 0.00 0.00 85 1014.6
20260507034945 3 32 1.6 4.8 0.00 0.00 0.00 86 1014.6
20260507034445 3 32 0.0 4.8 0.00 0.00 0.00 85 1014.5
20260507034015 3 32 1.6 3.2 0.00 0.00 0.00 85 1014.6
20260507033445 3 32 0.0 1.6 0.00 0.00 0.00 85 1014.5
20260507032945 3 32 0.0 0.0 0.00 0.00 0.00 85 1014.5
20260507032515 3 32 0.0 0.0 0.00 0.00 0.00 85 1014.5
20260507031945 3 32 0.0 0.0 0.00 0.00 0.00 85 1014.5
20260507031515 3 32 0.0 0.0 0.00 0.00 0.00 85 1014.4
20260507030945 3 32 0.0 0.0 0.00 0.00 0.00 85 1014.5
20260507030015 3 32 0.0 0.0 0.00 0.00 0.00 85 1014.5
20260507025445 3 32 0.0 0.0 0.00 0.00 0.00 84 1014.4
20260507025016 3 32 0.0 0.0 0.00 0.00 0.00 84 1014.5
20260507024515 3 32 0.0 0.0 0.00 0.00 0.00 84 1014.5
20260507024015 3 32 0.0 0.0 0.00 0.00 0.00 84 1014.4
20260507023515 3 32 0.0 0.0 0.00 0.00 0.00 84 1014.5
20260507023015 3 32 0.0 0.0 0.00 0.00 0.00 84 1014.4
20260507022445 3 32 0.0 0.0 0.00 0.00 0.00 84 1014.4
20260507022015 3 32 0.0 0.0 0.00 0.00 0.00 84 1014.4
20260507021445 4 32 0.0 0.0 0.00 0.00 0.00 84 1014.4
20260507020945 4 32 0.0 0.0 0.00 0.00 0.00 84 1014.4
20260507020515 4 32 0.0 1.6 0.00 0.00 0.00 84 1014.4
20260507020016 4 32 0.0 1.6 0.00 0.00 0.00 84 1014.4
20260507015445 4 32 0.0 1.6 0.00 0.00 0.00 84 1014.4
20260507015015 4 32 0.0 3.2 0.00 0.00 0.00 84 1014.4
20260507014445 4 32 0.0 3.2 0.00 0.00 0.00 84 1014.3
20260507014015 4 32 0.0 1.6 0.00 0.00 0.00 84 1014.4
20260507013446 4 32 0.0 3.2 0.00 0.00 0.00 83 1014.4
20260507013015 4 32 0.0 4.8 0.00 0.00 0.00 83 1014.4
20260507012515 4 32 0.0 4.8 0.00 0.00 0.00 83 1014.4
20260507011945 4 32 1.6 4.8 0.00 0.00 0.00 83 1014.3
20260507010445 5 32 0.0 1.6 0.00 0.00 0.00 82 1014.5
20260507010015 5 32 1.6 1.6 0.00 0.00 0.00 82 1014.5
20260507005515 5 32 0.0 0.0 0.00 0.00 0.00 82 1014.5
20260507004945 5 32 0.0 0.0 0.00 0.00 0.00 82 1014.5
20260507004515 5 32 0.0 0.0 0.00 0.00 0.00 82 1014.4
20260507003945 5 32 0.0 0.0 0.00 0.00 0.00 82 1014.4
20260507003515 5 32 0.0 0.0 0.00 0.00 0.00 82 1014.3
20260507002945 5 32 0.0 0.0 0.00 0.00 0.00 82 1014.4
20260507001445 5 32 0.0 0.0 0.00 0.00 0.00 82 1014.5
20260507000515 5 32 0.0 3.2 0.00 0.00 0.00 81 1014.5
20260507000015 5 32 0.0 3.2 0.00 0.00 0.00 81 1014.5
20260506235515 5 32 0.0 1.6 0.00 0.00 0.00 81 1014.4
20260506234945 6 32 0.0 1.6 0.00 0.00 0.00 81 1014.4
20260506234515 6 32 0.0 1.6 0.00 0.00 0.00 81 1014.4
20260506233945 6 32 0.0 1.6 0.00 0.00 0.00 81 1014.4
20260506233445 6 32 0.0 1.6 0.00 0.00 0.00 81 1014.4
20260506232945 6 32 0.0 1.6 0.00 0.00 0.00 80 1014.4
20260506232515 6 32 0.0 1.6 0.00 0.00 0.00 80 1014.4
20260506230445 6 32 0.0 6.4 0.00 0.00 0.00 80 1014.4
20260506230015 6 33 4.8 6.4 0.00 0.00 0.00 80 1014.3
20260506225515 6 33 0.0 4.8 0.00 0.00 0.00 80 1014.4
20260506225015 6 33 4.8 4.8 0.00 0.00 0.00 80 1014.4
20260506224516 6 33 0.0 3.2 0.00 0.00 0.00 80 1014.3
20260506223515 7 33 0.0 1.6 0.00 0.00 0.00 80 1014.3
20260506222515 7 33 0.0 1.6 0.00 0.00 0.00 80 1014.2
20260506222015 7 33 0.0 3.2 0.00 0.00 0.00 79 1014.1
20260506221515 7 33 0.0 4.8 0.00 0.00 0.00 79 1014.1
20260506221015 7 33 1.6 4.8 0.00 0.00 0.00 79 1014.1
20260506220515 7 33 4.8 6.4 0.00 0.00 0.00 79 1014.1
20260506220015 7 32 4.8 6.4 0.00 0.00 0.00 79 1014.1
20260506215515 7 52 1.6 9.7 0.00 0.00 0.00 79 1013.9
20260506215015 7 55 3.2 9.7 0.00 0.00 0.00 79 1013.8
20260506214515 7 53 3.2 6.4 0.00 0.00 0.00 79 1013.8
20260506214015 7 54 3.2 6.4 0.00 0.00 0.00 79 1013.8
20260506213515 7 55 6.4 6.4 0.00 0.00 0.00 79 1013.8
20260506213014 7 55 1.6 6.4 0.00 0.00 0.00 79 1013.8
20260506212515 7 55 3.2 6.4 0.00 0.00 0.00 79 1013.9
20260506212015 7 53 1.6 8.0 0.00 0.00 0.00 79 1013.8
20260506211515 7 54 1.6 8.0 0.00 0.00 0.00 79 1013.8
20260506211014 7 55 4.8 6.4 0.00 0.00 0.00 79 1013.8
20260506210514 7 55 1.6 4.8 0.00 0.00 0.00 79 1013.7
20260506210015 7 55 0.0 3.2 0.00 0.00 0.00 78 1013.6
20260506205515 8 55 0.0 3.2 0.00 0.00 0.00 77 1013.6
20260506205015 8 55 0.0 3.2 0.00 0.00 0.00 76 1013.6
20260506204514 8 55 1.6 3.2 0.00 0.00 0.00 76 1013.6
20260506202514 8 55 3.2 4.8 0.00 0.00 0.00 73 1013.5
20260506202015 8 55 3.2 4.8 0.00 0.00 0.00 74 1013.5
20260506201515 8 55 4.8 4.8 0.00 0.00 0.00 74 1013.4
20260506201014 8 55 1.6 4.8 0.00 0.00 0.00 74 1013.4
20260506200516 9 55 0.0 4.8 0.00 0.00 0.00 74 1013.4
20260506200015 9 55 4.8 6.4 0.00 0.00 0.00 73 1013.3
20260506195515 9 55 1.6 6.4 0.00 0.00 0.00 72 1013.2
20260506195014 10 55 0.0 6.4 0.00 0.00 0.00 71 1013.3
20260506194514 10 54 1.6 9.7 0.00 0.00 0.00 70 1013.2
20260506194016 10 55 3.2 9.7 0.00 0.00 0.00 70 1013.2
20260506193515 10 49 1.6 8.0 0.00 0.00 0.00 70 1013.1
20260506193014 10 47 1.6 8.0 0.00 0.00 0.00 69 1013.1
20260506192514 11 46 3.2 8.0 0.00 0.00 0.00 69 1013.1
20260506192014 11 40 3.2 8.0 0.00 0.00 0.00 68 1013.1
20260506191514 11 38 6.4 8.0 0.00 0.00 0.00 68 1013.0
20260506190515 11 46 4.8 12.9 0.00 0.00 0.00 66 1013.0
20260506190015 11 51 3.2 12.9 0.00 0.00 0.00 66 1013.0
20260506185515 11 94 3.2 9.7 0.00 0.00 0.00 66 1012.9
20260506184514 11 57 8.0 14.5 0.00 0.00 0.00 65 1012.9
20260506184014 11 43 4.8 16.1 0.00 0.00 0.00 64 1012.8
20260506183515 11 56 6.4 16.1 0.00 0.00 0.00 64 1012.8
20260506182514 11 33 6.4 14.5 0.00 0.00 0.00 63 1012.8
20260506182015 11 20 4.8 14.5 0.00 0.00 0.00 62 1012.7
20260506181515 12 5 8.0 16.1 0.00 0.00 0.00 61 1012.6
20260506180515 12 9 12.9 16.1 0.00 0.00 0.00 61 1012.5
20260506180015 12 26 9.7 12.9 0.00 0.00 0.00 61 1012.5
20260506175514 12 14 4.8 16.1 0.00 0.00 0.00 61 1012.5
20260506174515 12 11 8.0 14.5 0.00 0.00 0.00 60 1012.3
20260506174014 12 11 11.3 17.7 0.00 0.00 0.00 60 1012.2
20260506173514 12 18 8.0 17.7 0.00 0.00 0.00 59 1012.2
20260506173014 13 38 4.8 9.7 0.00 0.00 0.00 58 1012.1
20260506172514 13 55 1.6 9.7 0.00 0.00 0.00 57 1012.1
20260506172014 13 61 0.0 9.7 0.00 0.00 0.00 58 1012.1
20260506171015 12 13 1.6 8.0 0.00 0.00 0.00 61 1012.1
20260506170516 12 5 6.4 14.5 0.00 0.00 0.00 61 1012.1
20260506170015 12 32 6.4 14.5 0.00 0.00 0.00 61 1012.1
20260506165514 12 31 6.4 14.5 0.00 0.00 0.00 61 1012.1
20260506165014 12 34 12.9 16.1 0.00 0.00 0.00 60 1012.1
20260506164514 12 24 3.2 16.1 0.00 0.00 0.00 61 1012.1
20260506164014 12 24 8.0 16.1 0.00 0.00 0.00 59 1012.2
20260506163014 12 5 6.4 14.5 0.00 0.00 0.00 58 1012.1
20260506162514 13 74 3.2 12.9 0.00 0.00 0.00 57 1012.0
20260506162014 13 50 6.4 12.9 0.00 0.00 0.00 57 1012.0
20260506161014 13 21 4.8 17.7 0.00 0.00 0.00 57 1012.1
20260506160514 13 55 8.0 17.7 0.00 0.00 0.00 56 1012.0
20260506160014 13 42 9.7 17.7 0.00 0.00 0.00 56 1012.1
20260506155514 13 34 12.9 17.7 0.00 0.00 0.00 58 1012.1
20260506155014 13 27 8.0 17.7 0.00 0.00 0.00 56 1012.1
20260506154514 13 67 8.0 16.1 0.00 0.00 0.00 58 1012.1
20260506154015 13 35 6.4 16.1 0.00 0.00 0.00 57 1012.1
20260506153514 13 57 11.3 16.1 0.00 0.00 0.00 58 1012.2
20260506153014 13 78 6.4 20.9 0.00 0.00 0.00 59 1012.1
20260506152014 13 54 11.3 20.9 0.00 0.00 0.00 56 1012.1
20260506151514 13 28 6.4 16.1 0.00 0.00 0.00 55 1012.1
20260506150514 13 42 4.8 24.1 0.00 0.00 0.00 53 1012.2
20260506150014 13 30 6.4 24.1 0.00 0.00 0.00 53 1012.2
20260506145014 13 22 6.4 12.9 0.00 0.00 0.00 54 1012.1
20260506144514 13 36 6.4 19.3 0.00 0.00 0.00 51 1012.2
20260506143514 14 26 4.8 22.5 0.00 0.00 0.00 53 1012.2
20260506143014 13 32 19.3 22.5 0.00 0.00 0.00 54 1012.2
20260506142014 13 20 8.0 20.9 0.00 0.00 0.00 54 1012.3
20260506141514 13 63 12.9 20.9 0.00 0.00 0.00 54 1012.2
20260506141014 13 49 16.1 20.9 0.00 0.00 0.00 53 1012.2
20260506140514 13 42 6.4 19.3 0.00 0.00 0.00 54 1012.2
20260506140014 13 360 3.2 19.3 0.00 0.00 0.00 53 1012.2